www.pogodaiklimat.ru

Погода и климат >> Архив погоды >> Россия >> Красноярский край >> Курейка


ПОГОДА в Курейке

  • Прогноз погоды в Курейке
  • Монитор погоды в Курейке

АРХИВ ПОГОДЫ в Курейке

Время (UTC), дата Ветер
(напр.,м/с)
 
Видим.   Явления Облачность Т
(С)
Тd
(С)
f
(%)
Тe
(С)
Тes
(С)
Комфортность P
(гПа)
Po
(гПа)
Тmin
(С)
Tmax
(С)
R
(мм)
R24
(мм)
S
(см)
09 14.07 З 3 50 км 6/6 600 м
[Sc]
+17.3 +9.7 61 +17 +20 1018.0 1014.7
12 14.07 З 3 50 км 3/0
[Ci fib]
+18.5 +9.9 57 +19 +21 1017.6 1014.3 +18.7
15 14.07 З 1 50 км 3/0
[Ci fib]
+17.2 +10.8 66 +18 +18 1018.0 1014.7
21 14.07 З 1 50 км 3/0
[Ci fib]
+14.1 +10.3 78 +14 +15 1017.4 1014.1
00 15.07 З 1 50 км 4/0
[Ci fib]
+14.5 +11.9 84 +15 +17 1017.6 1014.3 +14.1
03 15.07 СВ 1 50 км 6/0
[Ci fib]
+18.4 +13.9 75 +20 +24 1018.0 1014.7
06 15.07 ЮВ 3 50 км 4/0
[Ci fib]
+21.8 +17.0 74 +26 +31 душно 1018.0 1014.7
09 15.07 В 3 50 км 3/0
[Ci fib]
+24.8 +17.5 64 +29 +34 душно 1016.5 1013.3
12 15.07 ЮВ 2 50 км 3/0
[Ci fib]
+24.8 +16.7 61 +28 +31 жарко 1015.6 1012.4 +25.6
15 15.07 Ю 2 50 км 3/0
[Ci fib]
+23.0 +14.5 59 +27 +27 душно 1016.6 1013.3
18 15.07 ЮВ 2 50 км ясно +19.8 +14.2 70 +22 +22 комфорт 1016.6 1013.3
21 15.07 ЮВ 1 50 км ясно +17.0 +11.9 72 +18 +18 1016.6 1013.3
00 16.07 ЮВ 1 50 км ясно +19.8 +15.4 76 +23 +26 комфорт 1016.6 1013.3 +17.0
03 16.07 ЮВ 2 50 км ясно +23.5 +19.8 80 +29 +36 душно 1018.0 1014.7
06 16.07 В 2 50 км ясно +26.9 +23.4 81 +36 +47 очень
душно
1016.5 1013.3
09 16.07 ЮВ 3 50 км ясно +28.8 +22.3 68 +38 +44 очень
душно
1015.2 1012.0
12 16.07 В 1 50 км ясно +29.3 +20.2 58 +36 +39 очень
душно
1014.2 1011.0 +29.5
15 16.07 штиль 0 50 км ясно +27.0 +18.0 58 +32 +32 очень
душно
1015.2 1012.0
18 16.07 штиль 0 50 км ясно +19.9 +15.7 77 +22 +22 комфорт 1014.0 1010.7
21 16.07 штиль 0 50 км ясно +16.4 +13.9 85 +16 +16 1015.3 1012.0
00 17.07 штиль 0 50 км ясно +20.7 +17.6 82 +24 +27 комфорт 1013.4 1010.2 +16.0
03 17.07 СЗ 1 50 км ясно +24.8 +18.2 67 +29 +38 душно 1013.9 1010.7
06 17.07 СЗ 2 50 км ясно +28.5 +19.1 57 +34 +45 очень
душно
1013.9 1010.7
09 17.07 СЗ 2 50 км ясно +29.5 +17.6 49 +34 +42 очень
душно
1011.5 1008.3
12 17.07 СЗ 2 50 км ясно +27.6 +15.1 46 +30 +33 жарко 1011.4 1008.2 +29.8
15 17.07 СЗ 2 50 км ясно +25.7 +13.5 47 +28 +28 жарко 1012.5 1009.3
18 17.07 СЗ 1 50 км 1/0
[Ci fib]
+21.7 +14.8 65 +25 +25 комфорт 1012.6 1009.3
21 17.07 СВ 1 50 км 1 балл +18.5 +15.6 83 +20 +20 1012.6 1009.3
00 18.07 СВ 2 50 км ясно +21.0 +14.9 68 +25 +27 комфорт 1012.9 1009.7 +18.5
03 18.07 ЮВ 3 50 км ясно +23.1 +14.4 58 +27 +33 душно 1014.0 1010.7
06 18.07 СВ 2 50 км 8/0
[Ci fib]
+25.8 +16.1 55 +29 +32 душно 1015.2 1012.0
09 18.07 СВ 2 50 км ясно +26.3 +16.2 54 +30 +38 душно 1013.9 1010.7
12 18.07 С 1 50 км ясно +25.0 +15.1 54 +28 +31 жарко 1012.5 1009.3 +26.5
15 18.07 СВ 2 50 км ясно +22.9 +14.5 59 +27 +27 душно 1014.0 1010.7
18 18.07 СВ 2 50 км ясно +18.6 +12.8 69 +20 +20 1015.3 1012.0
21 18.07 СВ 2 50 км ясно +16.3 +11.7 74 +16 +16 1016.6 1013.3
00 19.07 В 2 50 км ясно +19.1 +7.8 48 +20 +22 1017.9 1014.0 +16.3
03 19.07 В 5 50 км 2 балла +21.4 +10.2 49 +23 +26 комфорт 1019.3 1016.0
06 19.07 В 4 50 км 3/0
[Ci fib]
+23.8 +10.1 42 +25 +31 комфорт 1019.3 1016.0
09 19.07 В 4 50 км 3/0
[Ci fib]
+25.1 +9.8 38 +26 +30 жарко 1017.9 1014.7
12 19.07 В 2 50 км ясно +24.8 +9.0 37 +25 +28 комфорт 1016.9 1013.7
15 19.07 В 1 50 км ясно +22.6 +7.6 38 +24 +24 комфорт 1018.0 1014.7
18 19.07 В 2 50 км ясно +18.9 +9.7 55 +20 +20 1019.3 1016.0
21 19.07 ЮВ 2 50 км ясно +16.2 +9.4 64 +16 +16 1020.7 1017.3
00 20.07 ЮВ 2 50 км ясно +17.8 +9.7 59 +18 +20 1020.9 1017.6 +16.2
03 20.07 ЮВ 4 50 км ясно +21.2 +8.1 43 +22 +27 комфорт 1022.0 1018.7
06 20.07 В 5 50 км 3/0
[Ci fib]
+23.8 +5.6 31 +24 +28 комфорт 1022.0 1018.7
09 20.07 В 3 50 км 3/0
[Ci fib]
+24.8 +7.0 32 +25 +30 комфорт 1020.6 1017.3
12 20.07 ЮВ 2 50 км 3/0
[Ci fib]
+24.3 +7.4 34 +25 +27 комфорт 1018.7 1015.5 +25.0
15 20.07 В 1 50 км ясно +21.5 +9.7 47 +23 +23 комфорт 1019.3 1016.0
18 20.07 штиль 0 50 км ясно +12.9 +7.6 70 +13 +13 1019.4 1016.0
21 20.07 В 2 50 км ясно +14.5 +10.5 77 +14 +14 1019.4 1016.0
00 21.07 В 2 50 км ясно +16.6 +10.2 66 +17 +19 1018.9 1015.6 +12.9
03 21.07 ЮВ 2 50 км ясно +20.0 +11.5 58 +22 +29 комфорт 1019.3 1016.0

 

Местоположение метеостанции Курейка (Красноярский край, Россия): широта 66.47 долгота 87.22 высота над уровнем моря 28 м.

В архиве по умолчанию представлена погода в Курейке за последнюю неделю. Архивные данные за месяц целиком и за предыдущие месяцы, начиная с января 2011 года, Вы можете получить, выбрав интересующий диапазон дат из раскрывающегося списка и нажав кнопку "Ввод!".


*Определитесь, кто Вы:
робот инопланетянин человек

Внимание! Время в таблицах - всемирное. Для получения местного времени необходимо прибавить поправку, которая равна 7 ч.

Смотрите также архив погоды в соседних городах и на ближайших метеорологических станциях:

Погода в Светлогорске (Красноярский край, Россия) (75 км)
Погода в Туруханске (Красноярский край, Россия) (83 км)
Погода в Игарке (Красноярский край, Россия) (115 км)
Погода в Горбиачине (Красноярский край, Россия) (115 км)
Погода в Советской Речке (Красноярский край, Россия) (156 км)
Погода в Большом Пороге (Эвенкия, Россия) (158 км)
Погода в Снежногорске (Красноярский край, Россия) (183 км)
Погода в Красноселькупске (Ямало-Ненецкий АО, Россия) (231 км)
Погода в Потапово (Красноярский край, Россия) (248 км)
Погода в Верещагино (Красноярский край, Россия) (249 км)

Пояснения к столбцам:

Ветер - указаны скорость ветра в м/с - средняя за 10 мин, порывы в срок и между сроками (в фигурных скобках) и направление, откуда дует ветер: С - северный, СВ - северо-восточный, В - восточный, ЮВ - юго-восточный, Ю - южный, ЮЗ - юго-западный, З - западный, СЗ - северо-западный.
Видимость - горизонтальная дальность видимости в метрах или километрах. При видимости от 1 до 10 км при отсутствии осадков обычно наблюдается дымка, при ухудшении видимости до 1 км и менее - туман. В сухую погоду видимость может ухудшаться дымом, пылью или мглою.
Явления - указаны атмосферные явления, наблюдавшиеся в срок или в последний час перед сроком; фигурными скобками обозначены явления, наблюдавшиеся между сроками (за 1-3 часа до срока); квадратными скобками обозначены град или гололедные отложения с указанием их диаметра в мм.
Облачность - указаны через наклонную черту общая и нижняя облачность в баллах и высота нижней границы облаков в метрах; квадратными скобками обозначены формы облаков: Ci - перистые, Cs - перисто-слоистые, Cc - перисто-кучевые, Ac - высококучевые, As - высокослоистые, Sc - слоисто-кучевые, Ns - слоисто-дождевые, Cu - кучевые, Cb - кучево-дождевые. Подробнее классификацию облаков см. в Атласе облаков (PDF).
T - Температура воздуха - температура, измеренная на высоте 2 м над землей.
Td - Температура точки росы - температура, при понижении до которой содержащийся в воздухе водяной пар достигнет насыщения.
f - Относительная влажность воздуха - влажноcть воздуха, измеренная на высоте 2 м над землей.
Te - Эффективная температура - температура, которую ощущает одетый по сезону человек в тени. Характеристика душности погоды. При расчете учитывается влияние влажности воздуха и скорости ветра на теплоощущения человека.
Tes - Эффективная температура на солнце - температура, которую ощущает человек, с поправкой на солнечный нагрев. Характеристика знойности погоды. Зависит от высоты солнца над горизонтом, облачности и скорости ветра. Ночью, в пасмурную погоду, а также при ветре 12 м/с и более поправка равна нулю.
P - Атмосферное давление - приведенное к уровню моря атмосферное давление.
Po - Атмосферное давление - измеренное на уровне метеостанции атмосферное давление.
Tmin - Минимальная температура - минимум температуры воздуха на высоте 2 м над землей.
Tmax - Максимальная температура - максимум температуры воздуха на высоте 2 м над землей.
R - Количество осадков - Количество выпавших осадков за период времени, мм. При наведении курсора мыши на число - период времени, за который выпало указанное количество осадков.
R24 - Количество осадков - Количество выпавших осадков за 24 часа, мм.
S - Снежный покров - Высота снежного покрова, см. При наведении курсора мыши на число - состояние снежного покрова и степень покрытия местности в баллах.